Location: Bailleul
(50.3375°N, 2.8513°E)
Time: 18:51:03
(UTC+00:00)

Terra - Pass Details

Date: 04 August 2021
Orbit: 701 x 703 km, 98.2° (Epoch: 17 September)

Event Time Altitude Azimuth Distance (km) Brightness Sun altitude
Exits shadow 20:10:56 - 111° (ESE) 2,404 4.0 -6.7°
Reaches altitude 10° 20:11:41 10° 106° (ESE) 2,174 3.8 -6.8°
Maximum altitude 20:15:09 21° 59° (ENE) 1,583 3.5 -7.2°
Drops below altitude 10° 20:18:38 10° 12° (NNE) 2,184 4.7 -7.7°
Sets 20:21:23 0° 356° (N) 3,107 5.9 -8.0°
